1532559601.02,36408,19.88,74052.8,6.31,4.97,4.97,0,*70
1532559602.22,36409,19.88,74052.0,6.35,4.81,4.85,0,*71
1532559603.48,36410,19.88,74050.3,6.31,4.79,4.79,0,*79
1532559604.72,36411,19.88,74054.5,6.31,4.71,4.85,0,*73
1532559605.98,36412,19.88,74050.0,6.35,4.75,4.71,0,*7B
1532559607.24,36413,19.88,74046.5,6.35,4.71,4.59,0,*74
1532559608.47,36414,19.88,74046.8,6.35,4.59,4.53,0,*73
1532559609.67,36415,19.88,74054.5,6.35,4.49,4.49,0,*78
1532559610.88,36416,19.88,74052.5,6.35,4.37,4.15,0,*7B
1532559612.09,36417,19.88,74048.8,6.35,3.89,3.59,0,*77
1532559613.32,36418,19.88,74048.8,6.35,3.49,2.95,0,*75
1532559614.54,36419,19.88,74050.5,6.31,2.85,2.35,0,*7B
1532559615.79,36420,19.88,74052.0,6.35,2.25,1.93,0,*70
1532559617.04,36421,19.88,74052.3,6.35,1.89,1.89,0,*7F
1532559618.24,36422,19.88,74054.8,6.31,1.75,1.75,0,*78
1532559619.5,36423,19.88,74056.0,6.35,1.67,2.13,0,*7D
1532559620.74,36424,19.88,74052.5,6.31,2.01,2.61,0,*78
1532559622.0,36425,19.88,74052.5,6.31,3.15,3.67,0,*7A
1532559623.2,36426,19.88,74052.5,6.31,3.89,4.27,0,*7F
1532559624.41,36427,19.88,74054.8,6.31,4.07,4.33,0,*7A
1532559625.62,36428,19.88,74052.3,6.31,4.23,4.37,0,*77
1532559626.84,36429,19.88,74052.5,6.31,4.27,4.37,0,*72
1532559628.04,36430,19.88,74054.8,6.31,4.49,4.37,0,*72
1532559629.24,36431,19.88,74052.5,6.31,4.49,4.45,0,*76
1532559630.48,36432,19.88,74058.0,6.35,4.63,4.37,0,*7C
1532559631.71,36433,19.88,74058.0,6.35,4.63,4.33,0,*79
1532559632.94,36434,19.88,74056.0,6.31,4.67,4.23,0,*7F
1532559634.17,36435,19.88,74056.8,6.31,4.67,4.15,0,*7B
1532559635.37,36436,19.88,74054.0,6.31,4.49,3.89,0,*76
1532559636.6,36437,19.88,74058.0,6.31,4.33,3.97,0,*75
1532559637.83,36438,19.88,74056.0,6.31,4.33,4.01,0,*72
1532559639.06,36439,19.88,74058.3,6.31,4.11,3.79,0,*7B
1532559640.3,36440,19.88,74056.3,6.31,4.07,3.75,0,*7E
1532559641.51,36441,19.88,74056.8,6.35,4.15,3.81,0,*73
1532559642.74,36442,19.88,74056.0,6.35,4.31,4.27,0,*7D
1532559643.94,36443,19.88,74058.0,6.31,4.45,4.45,0,*7F
1532559645.2,36444,19.88,74052.5,6.31,4.59,4.59,0,*78
1532559646.4,36445,19.88,74056.3,6.31,4.81,4.81,0,*79
1532559647.6,36446,19.88,74054.3,6.31,4.85,4.81,0,*7E
1532559648.84,36447,19.88,74054.8,6.29,4.93,5.01,0,*78
1532559650.05,36448,19.88,74054.5,6.29,5.05,5.11,0,*78
1532559651.26,36449,19.88,74056.0,6.29,5.05,5.15,0,*7D
1532559652.47,36450,19.88,74058.3,6.29,4.93,5.11,0,*7F
1532559653.68,36451,19.88,74054.0,6.29,4.93,5.11,0,*7E
1532559654.9,36452,19.88,74056.5,6.29,4.93,5.11,0,*7D
1532559656.11,36453,19.88,74054.8,6.29,4.93,5.11,0,*7C
1532559657.32,36454,19.88,74052.3,6.29,4.93,5.15,0,*7F
1532559658.53,36455,19.88,74048.5,6.29,5.01,5.15,0,*74
1532559659.75,36456,19.88,74048.0,6.31,5.15,5.27,0,*7A
1532559660.93,36457,19.88,74050.0,6.29,5.33,5.37,0,*77
1532559662.1,36458,19.88,74050.8,6.29,5.37,5.45,0,*79
1532559663.32,36459,19.88,74050.0,6.29,5.27,5.27,0,*7D
1532559664.5,36460,19.88,74048.8,6.29,5.33,5.45,0,*76
1532559665.67,36461,19.88,74044.8,6.29,5.37,5.49,0,*7F
1532559666.84,36462,19.88,74050.3,6.29,5.45,5.49,0,*79
1532559668.04,36463,19.88,74050.3,6.29,5.27,5.37,0,*75
1532559669.21,36464,19.88,74046.3,6.29,5.37,5.37,0,*73
1532559670.42,36465,19.88,74046.3,6.31,5.41,5.49,0,*73
1532559671.59,36466,19.88,74044.3,6.29,5.45,5.49,0,*7D
1532559672.76,36467,19.88,74042.8,6.29,5.45,5.49,0,*7C
1532559673.98,36468,19.88,74046.8,6.31,5.49,5.51,0,*7F
1532559675.23,36469,19.88,74050.5,6.31,5.51,5.51,0,*77
1532559676.46,36470,19.88,74048.8,6.31,5.49,5.51,0,*76
1532559677.67,36471,19.88,74052.5,6.31,5.49,5.59,0,*7F
1532559678.9,36472,19.88,74054.5,6.31,5.59,5.51,0,*75
1532559680.12,36473,19.88,74050.5,6.31,5.51,5.41,0,*7D
1532559681.35,36474,19.88,74050.8,6.31,5.49,5.51,0,*72
1532559682.58,36475,19.88,74050.0,6.31,5.59,5.51,0,*72
1532559683.79,36476,19.88,74050.3,6.31,5.59,5.59,0,*79
1532559684.99,36477,19.88,74046.0,6.29,5.59,5.51,0,*79
1532559686.16,36478,19.88,74048.0,6.29,5.49,5.49,0,*7E
1532559687.36,36479,19.88,74050.5,6.31,5.49,5.49,0,*76
1532559688.59,36480,19.88,74054.8,6.31,5.49,5.51,0,*79
1532559689.79,36481,19.88,74048.5,6.31,5.41,5.49,0,*79
1532559690.99,36482,19.88,74048.0,6.31,5.37,5.41,0,*73
1532559692.19,36483,19.88,74048.8,6.31,5.37,5.49,0,*7A
1532559693.39,36484,19.88,74046.8,6.31,5.49,5.41,0,*7C
1532559694.62,36485,19.88,74044.5,6.31,5.51,5.59,0,*7D
1532559695.87,36486,19.88,74044.5,6.31,5.51,5.51,0,*76
1532559697.1,36487,19.88,74044.5,6.31,5.49,5.51,0,*7E
1532559698.3,36488,19.88,74050.8,6.31,5.49,5.49,0,*78
1532559699.55,36489,19.88,74044.5,6.31,5.51,5.51,0,*79
1532559700.78,36490,19.88,74046.8,6.31,5.49,5.51,0,*78
1532559701.95,36491,19.88,74052.0,6.29,5.45,5.49,0,*75
1532559703.2,36492,19.88,74054.0,6.31,5.51,5.51,0,*73
1532559704.4,36493,19.88,74050.0,6.31,5.49,5.49,0,*72
1532559705.61,36494,19.88,74050.0,6.35,5.33,5.33,0,*71
1532559706.81,36495,19.88,74046.0,6.31,5.29,5.37,0,*7B
1532559708.0,36496,19.88,74040.5,6.31,5.29,5.29,0,*77
1532559709.23,36497,19.88,74046.5,6.31,5.15,5.27,0,*77
1532559710.47,36498,19.88,74052.0,6.35,5.01,5.11,0,*7C
1532559711.71,36499,19.88,74050.3,6.35,4.71,4.81,0,*73
1532559712.94,36500,19.88,74048.5,6.35,4.59,4.89,0,*70
1532559714.14,36501,19.88,74050.3,6.31,4.49,4.85,0,*78
1532559715.34,36502,19.88,74050.0,6.31,4.33,4.81,0,*72
1532559716.58,36503,19.88,74048.3,6.31,4.23,4.93,0,*71
1532559717.82,36504,19.88,74054.8,6.31,4.27,4.93,0,*72
1532559719.06,36505,19.88,74052.8,6.35,4.37,4.97,0,*72
1532559720.29,36506,19.88,74052.3,6.31,4.15,4.79,0,*75
1532559721.5,36507,19.88,74048.0,6.31,4.27,4.81,0,*72
1532559722.73,36508,19.88,74048.8,6.31,4.23,4.67,0,*71
1532559723.94,36509,19.88,74044.8,6.31,4.27,4.81,0,*7C
1532559725.14,36510,19.88,74050.0,6.31,4.27,4.81,0,*74
1532559726.35,36511,19.88,74050.8,6.35,4.27,4.81,0,*71
1532559727.61,36512,19.88,74050.3,6.31,4.01,4.79,0,*75
1532559728.84,36513,19.88,74050.3,6.35,3.81,4.75,0,*73
1532559730.08,36514,19.88,74048.3,6.31,3.89,4.79,0,*74
1532559731.29,36515,19.88,74044.5,6.31,4.07,4.81,0,*73
1532559732.52,36516,19.88,74046.5,6.31,4.37,5.05,0,*7E
1532559733.76,36517,19.88,74050.3,6.31,4.71,5.15,0,*7C
1532559734.98,36518,19.88,74046.3,6.27,4.81,5.11,0,*7F
1532559736.18,36519,19.88,74046.5,6.29,4.89,5.05,0,*7D
1532559737.42,36520,19.88,74050.3,6.29,4.75,4.93,0,*7A
1532559738.62,36521,19.88,74050.0,6.29,4.67,4.81,0,*7B
1532559739.82,36522,19.88,74048.3,6.29,4.63,4.89,0,*74
1532559740.99,36523,19.88,74048.0,6.29,4.57,4.81,0,*7A
1532559742.17,36524,19.88,74048.3,6.29,4.45,4.81,0,*7E
1532559743.41,36525,19.88,74048.3,6.29,4.31,4.75,0,*77
1532559744.65,36526,19.88,74054.5,6.29,4.31,4.75,0,*74
1532559745.85,36527,19.88,74048.3,6.29,4.19,4.67,0,*7C
1532559747.06,36528,19.88,74050.0,6.29,4.11,4.63,0,*7F
1532559748.27,36529,19.88,74050.8,6.29,4.11,4.67,0,*7A
1532559749.51,36530,19.88,74052.8,6.31,4.27,4.71,0,*79
1532559750.71,36531,19.88,74050.8,6.31,4.45,4.81,0,*73
1532559751.95,36532,19.88,74054.3,6.31,4.59,4.85,0,*79
1532559753.18,36533,19.88,74050.5,6.31,4.59,4.85,0,*78
1532559754.42,36534,19.88,74054.8,6.31,4.59,4.85,0,*7F
1532559755.65,36535,19.88,74052.8,6.31,4.59,4.85,0,*7E
1532559756.86,36536,19.88,74052.5,6.31,4.57,4.85,0,*73
1532559758.06,36537,19.88,74054.3,6.29,4.63,4.89,0,*70
1532559759.26,36538,19.88,74052.5,6.29,4.63,4.89,0,*7F
1532559760.49,36539,19.88,74046.3,6.31,4.85,5.05,0,*7A
1532559761.69,36540,19.88,74048.0,6.29,5.11,5.27,0,*71
1532559762.91,36541,19.88,74046.0,6.27,5.23,5.33,0,*7A
1532559764.1,36542,19.88,74046.5,6.29,5.27,5.33,0,*73
1532559765.28,36543,19.88,74042.3,6.29,5.37,5.45,0,*72
1532559766.45,36544,19.88,74048.0,6.29,5.37,5.45,0,*75
1532559767.62,36545,19.88,74046.5,6.29,5.49,5.49,0,*71
1532559768.82,36546,19.88,74046.3,6.29,5.55,5.49,0,*7F
1532559770.02,36547,19.88,74044.5,6.29,5.55,5.49,0,*7E
1532559771.22,36548,19.88,74046.3,6.29,5.49,5.55,0,*71
1532559772.42,36549,19.88,74044.8,6.29,5.49,5.55,0,*70
1532559773.64,36550,19.88,74046.5,6.29,5.55,5.55,0,*75
1532559774.81,36551,19.88,74044.8,6.29,5.49,5.49,0,*74
1532559775.99,36552,19.88,74042.8,6.29,5.49,5.45,0,*7B
1532559777.19,36553,19.88,74040.5,6.31,5.59,5.59,0,*7F
1532559778.42,36554,19.88,74048.0,6.31,5.59,5.51,0,*70
1532559779.65,36555,19.88,74042.3,6.31,5.49,5.51,0,*70
1532559780.9,36556,19.88,74042.0,6.31,5.51,5.51,0,*7A
1532559782.13,36557,19.88,74046.0,6.31,5.59,5.51,0,*73
1532559783.38,36558,19.88,74042.3,6.31,5.51,5.51,0,*74
1532559784.63,36559,19.88,74044.3,6.31,5.51,5.51,0,*75
1532559785.86,36560,19.88,74050.0,6.31,5.51,5.41,0,*7E
1532559787.06,36561,19.88,74048.8,6.31,5.41,5.37,0,*7F
1532559788.29,36562,19.88,74048.3,6.31,5.37,5.27,0,*7C
1532559789.53,36563,19.88,74054.5,6.31,5.19,4.93,0,*7F
1532559790.75,36564,19.88,74054.5,6.31,4.97,4.81,0,*7C
1532559791.99,36565,19.88,74054.5,6.31,4.81,4.67,0,*72
1532559793.25,36566,19.88,74054.5,6.31,4.79,4.71,0,*71
1532559794.45,36567,19.88,74054.0,6.35,4.81,4.81,0,*7C
1532559795.71,36568,19.88,74052.3,6.31,4.71,4.79,0,*7F
1532559796.94,36569,19.88,74054.0,6.31,4.79,4.81,0,*71
1532559798.2,36570,19.88,74050.3,6.27,4.67,4.75,0,*7A
1532559799.43,36571,19.88,74052.0,6.31,4.49,4.59,0,*7E
1532559800.64,36572,19.88,74052.5,6.31,4.33,4.57,0,*7E
1532559801.84,36573,19.88,74056.8,6.31,4.23,4.45,0,*7D
1532559803.08,36574,19.88,74054.8,6.27,4.11,4.31,0,*7F
1532559804.29,36575,19.88,74054.8,6.31,4.23,4.37,0,*7E
1532559805.5,36576,19.81,74044.8,6.29,4.33,4.63,0,*74
1532559806.76,36577,19.88,74044.3,6.31,4.67,4.71,0,*7E
1532559808.0,36578,19.88,74046.0,6.35,4.85,4.75,0,*7D
1532559809.23,36579,19.88,74038.8,6.29,4.79,4.75,0,*72
1532559810.44,36580,19.88,74034.5,6.29,4.63,4.41,0,*78
1532559811.7,36581,19.88,74042.8,6.31,4.71,4.59,0,*7A
1532559812.91,36582,19.88,74046.0,6.29,4.67,4.57,0,*79
1532559814.14,36583,19.88,74046.0,6.31,4.67,4.45,0,*72
1532559815.35,36584,19.88,74058.0,6.31,4.37,4.07,0,*76
1532559816.58,36585,19.88,74056.3,6.29,3.71,3.03,0,*78
1532559817.78,36586,19.88,74060.8,6.29,2.51,0.97,0,*46
1532559819.01,36587,19.88,74058.5,6.29,-0.85,-4.01,0,*47
1532559820.23,36588,19.88,74056.3,6.29,-2.71,-6.35,0,*74
1532559821.46,36589,19.88,74060.3,6.27,-3.15,-7.19,0,*77
1532559822.7,36590,19.88,74056.5,6.27,-1.75,-5.73,0,*75
1532559823.93,36591,19.88,74052.5,6.27,0.29,-2.35,0,*64
1532559825.13,36592,19.88,74048.3,6.25,1.79,0.33,0,*48
1532559826.34,36593,19.88,74050.0,6.25,2.13,0.97,0,*48
1532559827.54,36594,19.88,74054.0,6.25,1.79,0.79,0,*40
1532559828.78,36595,19.88,74048.3,6.25,1.63,0.47,0,*47
1532559830.0,36596,19.88,74054.0,6.25,1.09,-0.41,0,*63
1532559831.25,36597,19.81,74044.8,6.23,0.47,-0.89,0,*5B
1532559832.48,36598,19.88,74048.5,6.23,0.91,-0.61,0,*59
1532559833.7,36599,19.81,74046.3,6.25,1.09,-0.15,0,*6D
1532559834.94,36600,19.88,74050.5,6.23,1.09,-0.07,0,*5B
1532559836.17,36601,19.88,74052.3,6.23,0.17,-1.75,0,*60
1532559837.42,36602,19.88,74048.0,6.23,-0.41,-2.03,0,*4F
1532559838.63,36603,19.81,74046.8,6.23,-0.81,-3.07,0,*47
1532559839.89,36604,19.88,74054.3,6.23,-1.87,-4.21,0,*74
1532559841.1,36605,19.88,74056.3,6.23,-1.75,-4.09,0,*72
1532559842.34,36606,19.88,74058.3,6.23,-1.35,-3.83,0,*70
1532559843.59,36607,19.88,74054.3,6.23,-1.01,-3.79,0,*73
1532559844.77,36608,19.88,74054.3,6.21,-0.33,-3.19,0,*48
1532559845.97,36609,19.88,74058.5,6.21,0.21,-2.35,0,*68
1532559847.21,36610,19.88,74058.3,6.21,1.17,-1.43,0,*56
1532559848.42,36611,19.88,74056.3,6.19,1.51,-0.69,0,*67
1532559849.65,36612,19.88,74062.8,6.19,2.09,0.63,0,*4D
1532559850.87,36613,19.88,74058.0,6.19,2.69,1.89,0,*7F
1532559852.11,36614,19.88,74060.0,6.19,3.33,3.03,0,*76
1532559853.34,36615,19.81,74054.0,6.17,4.07,3.97,0,*74
1532559854.6,36616,19.88,74056.0,6.17,4.31,4.31,0,*79
1532559855.86,36617,19.81,74052.8,6.17,4.67,4.63,0,*7C
1532559857.11,36618,19.88,74054.5,6.19,4.71,4.71,0,*79
1532559858.37,36619,19.88,74054.0,6.17,4.67,4.63,0,*72
1532559859.6,36620,19.88,74052.5,6.15,4.75,4.67,0,*7D
1532559860.81,36621,19.88,74050.5,6.17,4.89,4.89,0,*7D
1532559862.05,36622,19.88,74052.8,6.15,4.97,4.97,0,*7C
1532559863.31,36623,19.88,74050.8,6.17,5.01,5.01,0,*7F
1532559864.55,36624,19.88,74050.5,6.15,4.97,4.97,0,*7A
1532559865.79,36625,19.88,74052.8,6.15,4.97,5.01,0,*75
1532559866.97,36626,19.88,74054.8,6.15,4.89,4.89,0,*78
1532559868.18,36627,19.88,74052.3,6.17,4.89,4.89,0,*7B
1532559869.36,36628,19.88,74052.0,6.15,4.89,4.85,0,*7A
1532559870.62,36629,19.88,74050.8,6.17,4.93,4.93,0,*75
1532559871.83,36630,19.88,74048.0,6.15,4.89,4.97,0,*70
1532559873.04,36631,19.88,74054.3,6.17,4.81,4.81,0,*7C
1532559874.27,36632,19.88,74050.8,6.15,4.63,4.75,0,*7A
1532559875.51,36633,19.88,74048.3,6.15,4.75,4.79,0,*70
1532559876.77,36634,19.88,74048.0,6.17,4.79,4.93,0,*7D
1532559877.97,36635,19.88,74050.8,6.15,4.67,4.85,0,*76
1532559879.21,36636,19.88,74050.0,6.15,4.67,4.79,0,*76
1532559880.44,36637,19.88,74052.5,6.17,4.63,4.81,0,*76
1532559881.65,36638,19.88,74052.3,6.15,4.53,4.67,0,*70
1532559882.86,36639,19.88,74052.3,6.15,4.53,4.67,0,*71
1532559884.08,36640,19.81,74050.8,6.19,4.37,4.71,0,*76
1532559885.28,36641,19.88,74058.0,6.15,4.15,4.59,0,*71
1532559886.49,36642,19.88,74056.3,6.15,3.97,4.49,0,*7E
1532559887.66,36643,19.81,74052.8,6.15,3.55,4.07,0,*7B
1532559888.9,36644,19.88,74058.8,6.17,3.11,3.85,0,*73
1532559890.1,36645,19.88,74060.0,6.15,2.61,3.71,0,*7D
1532559891.34,36646,19.81,74054.8,6.17,3.11,4.07,0,*7C
1532559892.52,36647,19.88,74056.3,6.15,3.25,3.93,0,*72
1532559893.73,36648,19.88,74056.5,6.15,3.33,3.93,0,*7A
1532559894.96,36649,19.88,74056.0,6.15,3.45,4.05,0,*72
1532559896.19,36650,19.88,74054.3,6.15,3.37,4.05,0,*7F
1532559897.42,36651,19.81,74054.3,6.13,2.99,3.71,0,*79
1532559898.69,36652,19.88,74054.5,6.09,3.11,3.75,0,*74
1532559899.9,36653,19.88,74050.8,6.09,3.29,3.85,0,*71
1532559901.1,36654,19.88,74052.5,6.09,3.55,3.89,0,*71
1532559902.35,36655,19.88,74054.8,6.09,3.67,3.93,0,*7A
1532559903.59,36656,19.88,74052.5,6.07,3.75,4.05,0,*7C
1532559904.8,36657,19.88,74052.0,6.07,3.89,4.01,0,*7A
1532559906.04,36658,19.88,74048.3,6.05,3.75,3.89,0,*73
1532559907.3,36659,19.88,74044.8,6.05,3.49,3.67,0,*7D
1532559908.54,36660,19.88,74046.8,6.07,3.19,3.41,0,*74
1532559909.77,36661,19.88,74050.0,6.07,2.85,2.81,0,*7C
1532559911.0,36662,19.88,74048.3,6.07,2.39,1.89,0,*73
1532559912.23,36663,19.81,74050.3,6.05,1.55,0.97,0,*47
1532559913.48,36664,19.81,74048.5,6.05,0.91,0.13,0,*75
1532559914.69,36665,19.88,74054.5,6.07,0.09,-0.97,0,*66
1532559915.9,36666,19.88,74052.8,6.05,-0.69,-1.75,0,*41
1532559917.14,36667,19.81,74054.0,6.05,-0.85,-1.75,0,*42
1532559918.39,36668,19.88,74052.8,6.05,-0.73,-1.83,0,*4D
1532559919.58,36669,19.88,74050.3,6.03,-0.73,-1.25,0,*46
1532559920.76,36670,19.88,74050.8,6.03,0.01,-0.41,0,*65
1532559922.0,36671,19.88,74046.0,6.01,0.71,0.33,0,*79
1532559923.24,36672,19.81,74040.3,6.03,1.21,0.37,0,*48
1532559924.46,36673,19.81,74050.5,6.03,1.59,0.33,0,*42
1532559925.68,36674,19.88,74050.8,6.03,1.17,-0.29,0,*69
1532559926.88,36675,19.88,74054.0,6.03,0.83,-0.07,0,*68
1532559928.11,36676,19.81,74050.5,6.03,1.09,0.95,0,*4E
1532559929.31,36677,19.81,74048.5,6.03,1.41,1.55,0,*7E
1532559930.54,36678,19.88,74048.3,6.03,1.89,1.89,0,*74
1532559931.77,36679,19.81,74046.8,6.03,2.55,2.73,0,*71
1532559932.95,36680,19.81,74044.8,6.03,2.99,2.95,0,*7F
1532559934.17,36681,19.88,74050.8,6.03,2.95,2.89,0,*7F
1532559935.42,36682,19.88,74052.5,6.05,2.77,2.77,0,*77
1532559936.66,36683,19.88,74054.5,6.05,2.65,2.77,0,*75
1532559937.89,36684,19.88,74058.0,6.05,2.31,2.55,0,*73
1532559939.12,36685,19.81,74052.8,6.05,2.27,2.55,0,*75
1532559940.38,36686,19.88,74058.0,6.05,2.59,2.89,0,*7E
1532559941.64,36687,19.88,74052.8,6.01,2.85,3.11,0,*7A
1532559942.88,36688,19.88,74054.3,6.03,3.23,3.71,0,*7C
1532559944.1,36689,19.88,74052.3,6.01,3.97,4.27,0,*74
1532559945.31,36690,19.88,74048.8,6.01,4.37,4.49,0,*79
1532559946.52,36691,19.88,74050.3,6.01,4.41,4.53,0,*72
1532559947.76,36692,19.88,74044.0,6.01,4.53,4.63,0,*71
1532559949.02,36693,19.88,74040.0,6.01,4.63,4.67,0,*77
1532559950.25,36694,19.88,74038.8,6.01,4.79,4.85,0,*77
1532559951.49,36695,19.88,74034.3,6.01,4.89,4.97,0,*7A
1532559952.7,36696,19.88,74036.5,6.01,4.89,4.89,0,*76
1532559953.93,36697,19.88,74048.5,6.01,4.97,4.89,0,*78
1532559955.16,36698,19.81,74042.3,6.01,4.79,4.85,0,*7B
1532559956.4,36699,19.81,74040.0,6.03,4.75,4.79,0,*77
1532559957.64,36700,19.81,74036.5,6.03,4.75,4.79,0,*76
1532559958.82,36701,19.88,74028.3,6.03,4.85,4.85,0,*7B
1532559960.06,36702,19.88,74042.5,6.01,4.89,4.97,0,*75
1532559961.25,36703,19.88,74042.5,6.03,5.07,5.07,0,*79
1532559962.49,36704,19.88,74042.5,6.01,5.11,5.01,0,*7D
1532559963.68,36705,19.88,74038.5,6.03,5.11,5.07,0,*78
1532559964.87,36706,19.81,74028.8,6.03,5.11,5.11,0,*7C
1532559966.06,36707,19.88,74030.3,6.03,5.19,5.19,0,*7D
1532559967.28,36708,19.88,74026.3,6.01,5.19,5.19,0,*70
1532559968.51,36709,19.88,74024.3,6.05,5.33,5.27,0,*70
1532559969.76,36710,19.81,74026.8,6.05,5.27,5.27,0,*7D
1532559970.97,36711,19.88,74034.5,6.07,5.29,5.27,0,*70
1532559972.16,36712,19.88,74032.3,6.07,5.11,5.11,0,*7D
1532559973.4,36713,19.88,74036.3,6.05,5.11,5.05,0,*7B
1532559974.63,36714,19.81,74036.0,6.05,5.11,5.05,0,*7C
1532559975.84,36715,19.88,74038.0,6.05,5.15,5.11,0,*7C
1532559977.03,36716,19.88,74030.0,6.07,5.37,5.19,0,*75
1532559978.26,36717,19.88,74030.5,6.05,5.27,5.23,0,*7E
1532559979.47,36718,19.88,74042.5,6.07,5.29,5.27,0,*79
1532559980.66,36719,19.88,74040.8,6.07,5.29,5.19,0,*75
1532559981.86,36720,19.88,74040.3,6.05,5.15,5.15,0,*7E
1532559983.07,36721,19.81,74036.5,6.05,5.23,5.15,0,*7A
1532559984.32,36722,19.88,74034.3,6.07,4.97,4.97,0,*7E
1532559985.53,36723,19.88,74042.0,6.07,5.07,4.97,0,*77
1532559986.8,36724,19.88,74040.3,6.05,5.05,5.01,0,*7E
1532559987.99,36725,19.81,74036.3,6.07,5.07,5.07,0,*79
1532559989.25,36726,19.88,74036.0,6.05,4.93,4.93,0,*78
1532559990.47,36727,19.88,74038.3,6.07,4.85,4.93,0,*7C
1532559991.69,36728,19.88,74036.5,6.07,4.85,4.75,0,*7B
1532559992.93,36729,19.88,74038.3,6.07,4.75,4.63,0,*72
1532559994.19,36730,19.81,74036.8,6.05,4.71,4.67,0,*78
1532559995.38,36731,19.88,74034.3,6.07,4.85,4.81,0,*78
1532559996.59,36732,19.88,74038.5,6.07,4.85,4.75,0,*70
1532559997.81,36733,19.81,74032.8,6.07,4.81,4.75,0,*75
1532559999.02,36734,19.81,74044.0,6.07,4.97,4.81,0,*7E
1532560000.23,36735,19.88,74044.3,6.07,4.97,4.81,0,*7F
1532560001.48,36736,19.81,74044.5,6.07,4.93,4.75,0,*73
1532560002.69,36737,19.88,74044.8,6.09,4.81,4.57,0,*7F
1532560003.9,36738,19.88,74046.0,6.07,4.75,4.33,0,*77
1532560005.14,36739,19.81,74044.3,6.05,4.71,4.07,0,*77
1532560006.36,36740,19.88,74048.0,6.07,4.71,4.15,0,*78
1532560007.54,36741,19.88,74048.0,6.07,4.45,4.11,0,*7A
1532560008.77,36742,19.88,74044.8,6.05,4.59,4.45,0,*77
1532560009.99,36743,19.88,74046.0,6.07,4.81,4.63,0,*75
1532560011.2,36744,19.81,74046.0,6.07,4.81,4.63,0,*72
1532560012.41,36745,19.88,74050.5,6.07,4.85,4.59,0,*7E
1532560013.65,36746,19.81,74044.5,6.05,4.71,4.41,0,*7D
1532560014.86,36747,19.88,74042.8,6.07,4.81,4.59,0,*78
1532560016.07,36748,19.88,74040.8,6.07,4.81,4.63,0,*7E
1532560017.29,36749,19.88,74040.5,6.07,4.75,4.45,0,*70
1532560018.52,36750,19.81,74042.0,6.05,4.67,4.33,0,*78
1532560019.7,36751,19.81,74040.5,6.07,4.57,4.11,0,*78
1532560020.91,36752,19.81,74042.8,6.05,4.19,3.85,0,*79
1532560022.12,36753,19.81,74038.0,6.07,4.15,3.75,0,*79
1532560023.34,36754,19.88,74042.8,6.07,3.89,3.33,0,*7E
1532560024.55,36755,19.88,74036.3,6.07,3.85,3.07,0,*74
1532560025.77,36756,19.88,74048.8,6.07,3.67,2.91,0,*75
1532560027.0,36757,19.81,74048.0,6.07,3.33,2.69,0,*72
1532560028.19,36758,19.81,74044.5,6.07,2.91,2.35,0,*7D
1532560029.44,36759,19.88,74044.8,6.05,2.55,2.17,0,*76
1532560030.69,36760,19.88,74054.8,6.07,2.47,2.39,0,*71
1532560031.9,36761,19.81,74046.8,6.07,2.59,2.91,0,*7D
1532560033.11,36762,19.81,74044.0,6.05,2.65,3.29,0,*71
1532560034.34,36763,19.88,74044.3,6.05,3.25,3.75,0,*7C
1532560035.56,36764,19.81,74042.0,6.07,3.67,3.85,0,*70
1532560036.8,36765,19.88,74042.5,6.07,3.67,3.67,0,*7D
1532560038.03,36766,19.81,74040.3,6.05,3.49,3.29,0,*7A
1532560039.26,36767,19.81,74038.8,6.07,3.45,3.23,0,*7F
1532560040.49,36768,19.88,74032.5,6.05,3.29,3.19,0,*71
1532560041.75,36769,19.81,74036.3,6.05,3.07,2.77,0,*75
1532560042.99,36770,19.81,74044.8,6.05,2.91,2.55,0,*73
1532560044.22,36771,19.81,74042.8,6.07,2.73,2.59,0,*70
1532560045.46,36772,19.81,74042.3,6.07,2.59,2.59,0,*7B
1532560046.67,36773,19.81,74040.5,6.07,2.35,2.73,0,*78
1532560047.93,36774,19.88,74042.8,6.05,1.71,2.59,0,*76
1532560049.14,36775,19.88,74048.5,6.07,1.63,2.91,0,*72
1532560050.33,36776,19.81,74042.0,6.07,1.75,3.29,0,*74
1532560051.54,36777,19.81,74038.5,6.05,2.35,3.89,0,*7A
1532560052.78,36778,19.81,74038.8,6.05,3.25,4.31,0,*71
1532560054.01,36779,19.81,74040.5,6.05,3.71,4.45,0,*72
1532560055.25,36780,19.88,74042.8,6.05,4.19,4.71,0,*7A
1532560056.49,36781,19.81,74038.3,6.05,4.53,4.79,0,*7D
1532560057.75,36782,19.88,74040.3,6.05,4.67,4.79,0,*79
1532560059.01,36783,19.88,74036.0,6.05,4.71,4.79,0,*7F
1532560060.19,36784,19.81,74034.8,6.07,4.81,4.81,0,*72
1532560061.43,36785,19.88,74044.3,6.05,4.81,4.71,0,*7E
1532560062.67,36786,19.88,74046.0,6.05,4.81,4.71,0,*7D
1532560063.9,36787,19.81,74040.5,6.05,4.89,4.67,0,*73
1532560065.14,36788,19.88,74046.5,6.05,4.89,4.67,0,*7C
1532560066.38,36789,19.88,74042.5,6.05,4.71,4.57,0,*79
1532560067.59,36790,19.81,74042.8,6.07,4.75,4.49,0,*78
1532560068.86,36791,19.81,74040.5,6.05,4.71,4.31,0,*70
1532560070.09,36792,19.88,74046.0,6.05,4.59,4.23,0,*7A
1532560071.27,36793,19.81,74042.8,6.07,4.45,4.11,0,*75
1532560072.47,36794,19.81,74042.3,6.05,4.45,4.11,0,*70
1532560073.68,36795,19.88,74050.3,6.05,4.41,4.07,0,*72
1532560074.91,36796,19.88,74048.0,6.05,4.33,4.01,0,*72
1532560076.18,36797,19.81,74050.0,6.05,4.31,3.75,0,*75
1532560077.39,36798,19.88,74054.8,6.07,4.05,2.95,0,*70
1532560078.6,36799,19.81,74052.3,6.07,3.55,2.39,0,*75
1532560079.81,36800,19.88,74044.5,6.07,3.11,1.79,0,*7D
1532560081.02,36801,19.81,74036.5,6.07,2.95,1.67,0,*7E
1532560082.26,36802,19.81,74038.0,6.07,3.07,1.59,0,*7A
1532560083.49,36803,19.81,74040.0,6.05,3.19,1.83,0,*71
1532560084.7,36804,19.88,74046.5,6.07,3.25,2.05,0,*76
1532560085.93,36805,19.81,74044.3,6.05,2.91,1.55,0,*7D
1532560087.16,36806,19.81,74044.5,6.05,2.35,1.09,0,*79
1532560088.39,36807,19.81,74046.3,6.05,2.27,0.71,0,*45
1532560089.6,36808,19.81,74048.3,6.05,1.83,-0.37,0,*68
1532560090.83,36809,19.81,74044.5,6.05,0.63,-2.99,0,*60
1532560092.08,36810,19.88,74050.0,6.05,-0.69,-4.85,0,*44
1532560093.28,36811,19.88,74048.5,6.03,-0.53,-3.63,0,*45
1532560094.47,36812,19.81,74048.3,6.03,-0.15,-3.11,0,*41
1532560095.68,36813,19.81,74050.5,6.05,-0.57,-4.17,0,*41
1532560096.9,36814,19.88,74052.8,6.03,-0.93,-4.53,0,*48
1532560098.08,36815,19.81,74042.0,6.03,0.09,-2.15,0,*53
1532560099.32,36816,19.88,74040.8,6.03,1.09,-0.27,0,*62
1532560100.56,36817,19.81,74040.5,6.03,1.55,0.21,0,*41
1532560101.77,36818,19.88,74046.3,6.03,0.75,-0.41,0,*56
1532560103.02,36819,19.81,74042.5,6.01,1.29,0.95,0,*49
1532560104.24,36820,19.88,74046.3,6.03,1.79,1.33,0,*79
1532560105.49,36821,19.81,74046.0,6.01,1.59,0.21,0,*4A
1532560106.71,36822,19.81,74038.5,6.03,1.05,-2.03,0,*5D
1532560107.92,36823,19.81,74042.8,6.03,0.55,-2.15,0,*6F
1532560109.16,36824,19.88,74042.0,6.01,0.87,-0.41,0,*56
1532560110.4,36825,19.81,74040.0,6.01,1.33,-0.61,0,*6B
1532560111.61,36826,19.88,74042.0,6.03,0.47,-2.15,0,*69
1532560112.83,36827,19.81,74046.0,6.01,-0.15,-2.99,0,*44
1532560114.04,36828,19.81,74044.8,6.01,-0.73,-4.09,0,*44
1532560115.31,36829,19.81,74050.0,6.01,-1.01,-4.01,0,*79
1532560116.51,36830,19.81,74050.0,5.99,-1.71,-5.47,0,*77
1532560117.71,36831,19.88,74054.8,5.99,-2.31,-6.13,0,*73
1532560118.91,36832,19.81,74054.5,5.99,-2.79,-6.81,0,*77
1532560120.13,36833,19.81,74050.8,5.97,-3.07,-7.11,0,*78
1532560121.35,36834,19.81,74050.0,5.97,-2.87,-6.47,0,*74
1532560122.57,36835,19.81,74052.5,5.97,-3.07,-6.47,0,*7C
1532560123.79,36836,19.81,74050.5,5.95,-2.83,-5.77,0,*70
1532560125.03,36837,19.88,74054.8,5.93,-2.03,-4.33,0,*7E
1532560126.25,36838,19.81,74054.3,5.93,-1.75,-3.79,0,*7A
1532560127.49,36839,19.81,74054.0,5.93,-1.59,-3.55,0,*7B
1532560128.72,36840,19.81,74050.0,5.89,-0.89,-2.27,0,*46
1532560129.95,36841,19.81,74050.8,5.89,0.41,-2.15,0,*6F
1532560131.15,36842,19.88,74052.8,5.89,-0.33,-3.19,0,*49